Regional Weather Roundup
Issued by NWS

Home | Current Version | Previous Version | Graphics & Text | Print | Product List | Glossary On
Versions: 1 2 3 4 5 6 7 8 9 10 11 12 13 14 15 16 17 18 19 20 21 22 23 24 25 26 27 28 29 30 31 32 33 34 35 36 37 38 39 40 41 42 43 44 45 46 47 48 49 50
000
ASUS43 KLOT 301306
RWRIL

ILLINOIS REGIONAL WEATHER ROUNDUP
NATIONAL WEATHER SERVICE CHICAGO/ROMEOVILLE IL
800 AM CDT TUE SEP 30 2014

NOTE: "FAIR" INDICATES FEW OR NO CLOUDS BELOW 12,000 FEET WITH NO
SIGNIFICANT WEATHER AND/OR OBSTRUCTIONS TO VISIBILITY.

* THESE STATIONS ARE NOT UNDER NWS QUALITY CONTROL. THEY ALSO MAY NOT
  REPORT WEATHER SUCH AS PRECIPITATION OR FOG.

ILZ001-002-007-009-015-016-024-301400-
NORTHWEST ILLINOIS

CITY           SKY/WX    TMP DP  RH WIND       PRES   REMARKS
MOLINE         NOT AVBL
SAVANNA*       CLOUDY    50  45  81 E10       30.07R
$$

ILZ003-004-008-010-011-017-018-301400-
NORTH CENTRAL ILLINOIS

CITY           SKY/WX    TMP DP  RH WIND       PRES   REMARKS
ROCKFORD       DRIZZLE   47  43  86 E10       30.10R FOG
FREEPORT*      CLOUDY    47  44  88 NE8       30.09R
ROCHELLE*      CLOUDY    48  43  84 NE7       30.08R
DE KALB*       CLOUDY    45  41  86 NE12      30.08R
PERU*          CLOUDY    52  46  80 NE8       30.06R
$$

ILZ005-006-012>014-019>023-301400-
NORTHEAST ILLINOIS

CITY           SKY/WX    TMP DP  RH WIND       PRES   REMARKS
CHICAGO-OHARE  DRIZZLE   47  45  93 N10       30.05S FOG
CHICAGO-MIDWAY DRIZZLE   52  49  89 N10       30.04R FOG
AURORA         CLOUDY    49  43  80 NE10      30.06S
LANSING*       CLOUDY    53  48  83 N5        30.03S
JOLIET*        CLOUDY    49  47  92 N7        30.05R
WAUKEGAN       NOT AVBL
DUPAGE AIRPORT CLOUDY    49  44  83 N12       30.06R
KANKAKEE*      CLOUDY    54  49  82 N6        30.04S
WHEELING       CLOUDY    48  45  89 N10       30.07R FOG
MORRIS*        CLOUDY    51  47  87 CALM      30.04S
ROMEOVILLE*    CLOUDY    50  48  94 N8        30.05S
NORTHERLY ISL    N/A     53  47  79 N13         N/A
$$

LMZ740>746-301400-
SOUTHERN LAKE MICHIGAN

STATION/POSITION SKY/WX   TEMP    WIND        PRES    VSBY  WAVE
                          AIR SEA DIR/SP/G                  HT/PER
                          (F)     (DEG/KT/KT) (MB)    (MI)  (FT/S)
SOUTHERN BUOY              53 61  360/ 17/ 21 1017.1R         6/ 8
WAUKEGAN HARBOR                   330/ 10/ 15   N/A
HARRISON CRIB              53     360/ 17/ 21   N/A
BURNHAM HARBOR             53     350/  8/ 17   N/A
CALUMET HARBOR             54      10/ 12/ 15 1016.0R
MICHIGAN CITY              53     360/ 23/ 26   N/A
MICHIGAN CITY 6N           55 65   10/ 16/ 21   N/A           7/ 2
ST. JOSEPH                 54 62   10/ 16/ 21   N/A           5/ 2
$$

ILZ025>027-034>036-040-047-049-050-058-095>099-301400-
WEST-CENTRAL ILLINOIS

CITY           SKY/WX    TMP DP  RH WIND       PRES   REMARKS
QUINCY         FOG       58  57  97 E9        29.98R VSB 1/4
GALESBURG*     CLOUDY    54  52  92 NE10      30.02R
MACOMB*        CLOUDY    56  55  97 E8        30.03R FOG
JACKSONVILLE*  FOG       60  59  97 NE7       30.00R VSB 1/4
PITTSFIELD*    MOSUNNY   61  58  90 NE3       30.00R FOG
$$

ILZ028>032-037-038-041>044-048-051>054-059>061-301400-
CENTRAL ILLINOIS

CITY           SKY/WX    TMP DP  RH WIND       PRES   REMARKS
PONTIAC        CLOUDY    55  50  82 NE9       30.03S
BLOOMINGTON    CLOUDY    55  52  90 NE12        N/A
DECATUR        CLOUDY    57  56  96 NE10      30.01R FOG
PEORIA         CLOUDY    59  52  77 NE14      30.02R
LACON*         CLOUDY    54  49  83 E8        30.03S
LINCOLN*       CLOUDY    58  55  91 NE8       29.99S
SPRINGFIELD    FOG       58  57  97 NE10      30.01R VSB 3/4
TAYLORVILLE    FOG       55  55 100 NE7       29.99S VSB 1/4
$$

ILZ033-039-045-046-055>057-062-063-301400-
EAST-CENTRAL ILLINOIS

CITY           SKY/WX    TMP DP  RH WIND       PRES   REMARKS
DANVILLE*      CLOUDY    55  51  89 N9        29.98S
RANTOUL*       CLOUDY    57  51  82 NE9       30.02R
MATTOON        CLOUDY    57  56  96 NE10      29.99R
PARIS*         CLOUDY    57  57  98 NE3       30.00R FOG
$$

ILZ079-100>102-301400-
SOUTHWEST ILLINOIS

CITY           SKY/WX    TMP DP  RH WIND       PRES   REMARKS
BELLEVILLE     SUNNY     59  59  99 CALM      29.96R
CAHOKIA*       SUNNY     60  58  92 CALM      29.97R
SPARTA*        SUNNY     60  56  88 CALM      29.98R
$$

ILZ064>066-069>071-074>076-080>082-084>086-088>090-092>094-301400-
SOUTH-CENTRAL ILLINOIS

CITY           SKY/WX    TMP DP  RH WIND       PRES   REMARKS
CARBONDALE     SUNNY     57  55  93 CALM      29.97R FOG
CAIRO*         SUNNY     58  56  94 CALM      29.96S
EFFINGHAM*     FOG       58  55  92 NE6       29.98R VSB 1/4
MARION         MOSUNNY   59  57  94 CALM      29.98R
CENTRALIA*     SUNNY     59  56  89 CALM      29.97R FOG
SALEM*         SUNNY     60  59  99 CALM      29.97S FOG
METROPOLIS*    SUNNY     57  57 100 CALM      29.96S
$$

ILZ067-068-072-073-078-083-087-091-301400-
SOUTHEAST ILLINOIS

CITY           SKY/WX    TMP DP  RH WIND       PRES   REMARKS
LAWRENCEVILLE  SUNNY     59  57  93 N3        29.97R FOG
FLORA*         SUNNY     60  57  91 N6        29.97R
FAIRFIELD*     SUNNY     57  55  94 CALM      29.96R FOG
HARRISBURG*    SUNNY     57  57 100 CALM      29.98R
ROBINSON*      FOG       59  59  99 NE7       29.98R VSB 3/4
CARMI*         SUNNY     59  59 100 CALM      29.95F
$$

ABBREVIATIONS USED IN REMARKS
   TC - TEMPERATURE IN CELSIUS
  WCI - WIND CHILL INDEX
   HX - HEAT INDEX
  VSB - VISIBILITY
$$



USA.gov is the U.S. government's official web portal to all federal, state and local government web resources and services.